Regional Weather Roundup
Issued by NWS

Home | Current Version | Previous Version | Text Only | Print | Product List | Glossary Off
Versions: 1 2 3 4 5 6 7 8 9 10 11 12 13 14 15 16 17 18 19 20 21 22 23 24 25 26 27 28

000
ASUS45 KCYS 081710
RWRWY

WYOMING REGIONAL WEATHER ROUNDUP
NATIONAL WEATHER SERVICE CHEYENNE WY
1000 AM MST THU DEC 08 2016

NOTE:  "FAIR" INDICATES FEW OR NO CLOUDS BELOW 12,000 FEET
WITH NO SIGNIFICANT WEATHER AND/OR OBSTRUCTIONS TO VISIBILITY.

WYZ001-081800-
YELLOWSTONE NATIONAL PARK

CITY           SKY/WX    TMP DP  RH WIND       PRES   REMARKS
LK YELLOWSTONE   N/A      0  -3  87 VRB3      30.14S
W YELLOWSTONE  NOT AVBL

$$
WYZ002>013-054>058-071-098>099-081800-
NORTHERN WYOMING

CITY           SKY/WX    TMP DP  RH WIND       PRES   REMARKS
JACKSON        FAIR     -11 -15  84 CALM      30.28S
CODY           FAIR       0  -4  83 S6        30.33F WCI -12
GREYBULL       FAIR       0  -6  76 SE3       30.46F
WORLAND        FAIR      -1  -5  82 CALM      30.42F
SHERIDAN       FAIR      -1  -8  72 CALM      30.46F
BUFFALO        FAIR       4  -9  55 S6        30.37F WCI  -7
GILLETTE       FAIR      -1  -6  79 CALM      30.45S
HULETT         FAIR      -2  -9  71 CALM      30.49R
NEWCASTLE      FAIR       0  -8  71 CALM      30.50F

$$
WYZ014>020-022>026-101>103-081800-
CENTRAL WYOMING

CITY           SKY/WX    TMP DP  RH WIND       PRES   REMARKS
BIG PINEY      FAIR      -5  -9  83 SW3       30.25R
PINEDALE       FAIR      -8 -15  71 NW9       30.24R WCI -25
DUBOIS         FAIR       1 -11  55 NW12      30.13S WCI -15
LANDER         FAIR       3  -5  69 CALM      30.30S
RIVERTON       FAIR       3  -2  79 CALM      30.32S
CASPER         FAIR     -14 -17  87 CALM      30.37S
DOUGLAS        FAIR     -12 -17  78 CALM      30.44S

$$
WYZ021-027>030-104>119-081800-
SOUTHERN WYOMING

CITY           SKY/WX    TMP DP  RH WIND       PRES   REMARKS
EVANSTON       CLOUDY     5  -4  66 E12       30.17R WCI -11
KEMMERER         N/A      3  -4  72 NE3       30.20R
FORT BRIDGER   FAIR       0  -4  85 NE3       30.24S
ROCK SPRINGS   FAIR       0  -4  83 CALM      30.24S FOG
DIXON          FAIR       6  -6  57 SE5       30.31S WCI  -3
RAWLINS        FAIR      -1  -6  79 SE3       30.26S
SARATOGA       FAIR       5  -6  61 SE12      30.25S WCI -11
LARAMIE        FAIR       3  -2  79 S7        30.22S WCI  -9
CHEYENNE       FAIR       7   0  73 SW6       30.32S WCI  -3
TORRINGTON     FAIR      -2  -7  79 W5        30.51R WCI -12
PINE BLUFFS    FAIR      -4  -8  84 MISG      30.44S

$$




USA.gov is the U.S. government's official web portal to all federal, state and local government web resources and services.